Time,TemperatureF,DewpointF,PressureIn,WindDirection,WindDirectionDegrees,WindSpeedMPH,WindSpeedGustMPH,Humidity,HourlyPrecipIn,Conditions,Clouds,dailyrainin,SoftwareType,DateUTC
2013-08-08 00:02:00,68.5,45.1,30.00,SW,225,2.0,2.0,43,0.00,,,0.00,meteohub,2013-08-08 07:02:00,
2013-08-08 00:07:00,68.2,45.5,30.01,South,180,2.0,2.0,44,0.00,,,0.00,meteohub,2013-08-08 07:07:00,
2013-08-08 00:12:00,68.0,45.3,30.01,SW,225,2.0,2.0,44,0.00,,,0.00,meteohub,2013-08-08 07:12:00,
2013-08-08 00:17:00,68.0,45.9,30.01,SW,225,0.0,2.0,45,0.00,,,0.00,meteohub,2013-08-08 07:17:00,
2013-08-08 00:23:00,67.8,46.2,30.01,SW,225,1.0,2.0,46,0.00,,,0.00,meteohub,2013-08-08 07:23:00,
2013-08-08 00:29:00,67.6,46.0,30.00,NE,45,2.0,2.0,46,0.00,,,0.00,meteohub,2013-08-08 07:29:00,
2013-08-08 00:35:00,68.2,44.2,30.01,North,0,2.0,4.0,42,0.00,,,0.00,meteohub,2013-08-08 07:35:00,
2013-08-08 00:41:00,68.5,44.6,30.00,East,90,1.0,4.0,42,0.00,,,0.00,meteohub,2013-08-08 07:41:00,
2013-08-08 00:47:00,68.5,44.6,30.00,North,0,2.0,4.0,42,0.00,,,0.00,meteohub,2013-08-08 07:47:00,
2013-08-08 00:52:00,68.5,44.6,30.00,NE,45,2.0,4.0,42,0.00,,,0.00,meteohub,2013-08-08 07:52:00,
2013-08-08 00:57:00,68.5,44.6,30.01,NE,45,6.0,6.0,42,0.00,,,0.00,meteohub,2013-08-08 07:57:00,
2013-08-08 01:02:00,68.5,44.6,30.00,North,0,2.0,6.0,42,0.00,,,0.00,meteohub,2013-08-08 08:02:00,
2013-08-08 01:07:00,68.7,44.8,30.00,North,0,2.0,6.0,42,0.00,,,0.00,meteohub,2013-08-08 08:07:00,
2013-08-08 01:12:00,68.7,44.8,30.01,NW,315,2.0,6.0,42,0.00,,,0.00,meteohub,2013-08-08 08:12:00,
2013-08-08 01:17:00,68.7,45.3,30.00,WNW,293,4.0,4.0,43,0.00,,,0.00,meteohub,2013-08-08 08:17:00,
2013-08-08 01:22:00,68.7,45.3,30.01,WNW,293,4.0,4.0,43,0.00,,,0.00,meteohub,2013-08-08 08:22:00,
2013-08-08 01:27:00,68.2,46.0,30.00,East,90,2.0,4.0,45,0.00,,,0.00,meteohub,2013-08-08 08:27:00,
2013-08-08 01:32:00,68.0,46.4,30.00,West,270,1.0,4.0,46,0.00,,,0.00,meteohub,2013-08-08 08:32:00,
2013-08-08 01:37:00,67.8,46.9,30.00,North,0,3.0,4.0,47,0.00,,,0.00,meteohub,2013-08-08 08:37:00,
2013-08-08 01:42:00,67.8,46.2,30.01,East,90,3.0,4.0,46,0.00,,,0.00,meteohub,2013-08-08 08:42:00,
2013-08-08 01:47:00,68.4,45.7,30.01,North,0,2.0,4.0,44,0.00,,,0.00,meteohub,2013-08-08 08:47:00,
2013-08-08 01:52:00,68.4,45.7,30.01,SW,225,2.0,4.0,44,0.00,,,0.00,meteohub,2013-08-08 08:52:00,
2013-08-08 01:57:00,68.2,46.0,30.01,SE,135,1.0,4.0,45,0.00,,,0.00,meteohub,2013-08-08 08:57:00,
2013-08-08 02:02:00,68.0,45.3,30.01,North,0,0.0,4.0,44,0.00,,,0.00,meteohub,2013-08-08 09:02:00,
2013-08-08 02:07:00,67.8,45.7,30.01,South,180,1.0,3.0,45,0.00,,,0.00,meteohub,2013-08-08 09:07:00,
2013-08-08 02:12:00,67.6,46.0,30.01,SW,225,1.0,1.0,46,0.00,,,0.00,meteohub,2013-08-08 09:12:00,
2013-08-08 02:17:00,67.3,45.9,30.01,SW,225,2.0,2.0,46,0.00,,,0.00,meteohub,2013-08-08 09:17:00,
2013-08-08 02:22:00,67.1,45.7,30.01,SW,225,0.0,2.0,46,0.00,,,0.00,meteohub,2013-08-08 09:22:00,
2013-08-08 02:27:00,66.9,46.0,30.01,SW,225,1.0,2.0,47,0.00,,,0.00,meteohub,2013-08-08 09:27:00,
2013-08-08 02:32:00,66.7,45.3,30.01,West,270,2.0,2.0,46,0.00,,,0.00,meteohub,2013-08-08 09:32:00,
2013-08-08 02:37:00,66.7,45.3,30.00,West,270,1.0,2.0,46,0.00,,,0.00,meteohub,2013-08-08 09:37:00,
2013-08-08 02:42:00,66.7,45.3,30.00,South,180,1.0,2.0,46,0.00,,,0.00,meteohub,2013-08-08 09:42:00,
2013-08-08 02:47:00,66.6,45.1,30.00,South,180,0.0,2.0,46,0.00,,,0.00,meteohub,2013-08-08 09:47:00,
2013-08-08 02:52:00,66.0,46.8,30.00,SW,225,1.0,2.0,50,0.00,,,0.00,meteohub,2013-08-08 09:52:00,
2013-08-08 02:57:00,65.5,46.9,30.00,SW,225,1.0,2.0,51,0.00,,,0.00,meteohub,2013-08-08 09:57:00,
2013-08-08 03:02:00,65.3,47.3,30.00,SW,225,0.0,2.0,52,0.00,,,0.00,meteohub,2013-08-08 10:02:00,
2013-08-08 03:07:00,65.3,47.3,30.00,SW,225,0.0,1.0,52,0.00,,,0.00,meteohub,2013-08-08 10:07:00,
2013-08-08 03:12:00,64.2,46.2,30.00,SW,225,1.0,1.0,52,0.00,,,0.00,meteohub,2013-08-08 10:12:00,
2013-08-08 03:17:00,63.9,46.4,30.00,SW,225,0.0,2.0,53,0.00,,,0.00,meteohub,2013-08-08 10:17:00,
2013-08-08 03:22:00,63.7,46.2,30.00,SW,225,0.0,2.0,53,0.00,,,0.00,meteohub,2013-08-08 10:22:00,
2013-08-08 03:27:00,63.3,46.4,30.00,SW,225,0.0,2.0,54,0.00,,,0.00,meteohub,2013-08-08 10:27:00,
2013-08-08 03:32:00,63.0,46.0,30.00,SW,225,0.0,1.0,54,0.00,,,0.00,meteohub,2013-08-08 10:32:00,
2013-08-08 03:37:00,62.6,46.2,29.99,SW,225,1.0,1.0,55,0.00,,,0.00,meteohub,2013-08-08 10:37:00,
2013-08-08 03:42:00,62.4,46.9,30.00,SW,225,0.0,1.0,57,0.00,,,0.00,meteohub,2013-08-08 10:42:00,
2013-08-08 03:47:00,62.1,46.6,30.00,East,90,1.0,1.0,57,0.00,,,0.00,meteohub,2013-08-08 10:47:00,
2013-08-08 03:52:00,61.7,46.4,29.99,West,270,0.0,2.0,57,0.00,,,0.00,meteohub,2013-08-08 10:52:00,
2013-08-08 03:57:00,61.5,46.2,29.99,SW,225,2.0,2.0,57,0.00,,,0.00,meteohub,2013-08-08 10:57:00,
2013-08-08 04:02:00,61.3,46.4,29.99,SW,225,1.0,2.0,58,0.00,,,0.00,meteohub,2013-08-08 11:02:00,
2013-08-08 04:07:00,61.2,46.8,30.00,NW,315,1.0,2.0,59,0.00,,,0.00,meteohub,2013-08-08 11:07:00,
2013-08-08 04:12:00,61.2,46.8,29.99,NE,45,1.0,2.0,59,0.00,,,0.00,meteohub,2013-08-08 11:12:00,
2013-08-08 04:17:00,60.8,46.4,29.99,NE,45,0.0,2.0,59,0.00,,,0.00,meteohub,2013-08-08 11:17:00,
2013-08-08 04:22:00,60.6,46.6,30.00,SW,225,2.0,2.0,60,0.00,,,0.00,meteohub,2013-08-08 11:22:00,
2013-08-08 04:27:00,60.1,46.6,29.99,SW,225,0.0,2.0,61,0.00,,,0.00,meteohub,2013-08-08 11:27:00,
2013-08-08 04:32:00,59.7,46.8,29.99,SW,225,1.0,2.0,62,0.00,,,0.00,meteohub,2013-08-08 11:32:00,
2013-08-08 04:37:00,59.4,46.8,30.00,SW,225,0.0,2.0,63,0.00,,,0.00,meteohub,2013-08-08 11:37:00,
2013-08-08 04:42:00,59.2,46.6,29.99,SW,225,0.0,2.0,63,0.00,,,0.00,meteohub,2013-08-08 11:42:00,
2013-08-08 04:47:00,59.0,46.8,29.99,SW,225,2.0,2.0,64,0.00,,,0.00,meteohub,2013-08-08 11:47:00,
2013-08-08 04:52:00,58.6,47.7,29.99,SW,225,2.0,2.0,67,0.00,,,0.00,meteohub,2013-08-08 11:52:00,
2013-08-08 04:57:00,57.9,47.8,30.00,West,270,0.0,2.0,69,0.00,,,0.00,meteohub,2013-08-08 11:57:00,
2013-08-08 05:02:00,57.2,48.2,30.00,SW,225,1.0,2.0,72,0.00,,,0.00,meteohub,2013-08-08 12:02:00,
2013-08-08 05:07:00,55.4,48.0,30.00,SW,225,0.0,2.0,76,0.00,,,0.00,meteohub,2013-08-08 12:07:00,
2013-08-08 05:12:00,54.5,48.2,30.00,SW,225,1.0,1.0,79,0.00,,,0.00,meteohub,2013-08-08 12:12:00,
2013-08-08 05:17:00,53.8,47.8,30.00,SW,225,1.0,2.0,80,0.00,,,0.00,meteohub,2013-08-08 12:17:00,
2013-08-08 05:22:00,53.4,48.4,30.00,SW,225,2.0,2.0,83,0.00,,,0.00,meteohub,2013-08-08 12:22:00,
2013-08-08 05:27:00,52.9,48.6,30.00,SW,225,2.0,2.0,85,0.00,,,0.00,meteohub,2013-08-08 12:27:00,
2013-08-08 05:32:00,52.5,48.4,30.00,South,180,2.0,2.0,86,0.00,,,0.00,meteohub,2013-08-08 12:32:00,
2013-08-08 05:37:00,52.2,48.7,29.99,West,270,1.0,2.0,88,0.00,,,0.00,meteohub,2013-08-08 12:37:00,
2013-08-08 05:42:00,51.8,48.7,29.99,SW,225,1.0,2.0,89,0.00,,,0.00,meteohub,2013-08-08 12:42:00,
2013-08-08 05:47:00,51.4,48.6,29.99,NE,45,1.0,2.0,90,0.00,,,0.00,meteohub,2013-08-08 12:47:00,
2013-08-08 05:52:00,51.3,48.7,30.00,NE,45,2.0,2.0,91,0.00,,,0.00,meteohub,2013-08-08 12:52:00,
2013-08-08 05:57:00,51.3,48.4,29.99,SE,135,1.0,2.0,90,0.00,,,0.00,meteohub,2013-08-08 12:57:00,
2013-08-08 06:02:00,51.1,48.2,30.00,SE,135,0.0,2.0,90,0.00,,,0.00,meteohub,2013-08-08 13:02:00,
2013-08-08 06:07:00,51.1,48.2,30.00,SW,225,1.0,2.0,90,0.00,,,0.00,meteohub,2013-08-08 13:07:00,
2013-08-08 06:12:00,51.1,48.0,30.00,SW,225,0.0,2.0,89,0.00,,,0.00,meteohub,2013-08-08 13:12:00,
2013-08-08 06:17:00,51.4,48.6,29.99,South,180,2.0,2.0,90,0.00,,,0.00,meteohub,2013-08-08 13:17:00,
2013-08-08 06:22:00,52.0,48.9,30.00,South,180,2.0,2.0,89,0.00,,,0.00,meteohub,2013-08-08 13:22:00,
2013-08-08 06:27:00,52.5,49.6,30.00,SW,225,2.0,2.0,90,0.00,,,0.00,meteohub,2013-08-08 13:27:00,
2013-08-08 06:32:00,53.4,50.2,30.00,South,180,1.0,3.0,89,0.00,,,0.00,meteohub,2013-08-08 13:32:00,
2013-08-08 06:37:00,54.0,50.2,30.00,South,180,0.0,3.0,87,0.00,,,0.00,meteohub,2013-08-08 13:37:00,
2013-08-08 06:42:00,54.3,49.6,30.00,SW,225,1.0,2.0,84,0.00,,,0.00,meteohub,2013-08-08 13:42:00,
2013-08-08 06:47:00,55.0,49.3,30.00,East,90,2.0,2.0,81,0.00,,,0.00,meteohub,2013-08-08 13:47:00,
2013-08-08 06:52:00,55.8,48.7,30.01,ENE,68,2.0,3.0,77,0.00,,,0.00,meteohub,2013-08-08 13:52:00,
2013-08-08 06:57:00,56.3,48.2,30.00,SE,135,2.0,3.0,74,0.00,,,0.00,meteohub,2013-08-08 13:57:00,
2013-08-08 07:02:00,56.7,47.7,30.00,SE,135,1.0,3.0,72,0.00,,,0.00,meteohub,2013-08-08 14:02:00,
2013-08-08 07:07:00,57.4,47.7,30.00,SE,135,3.0,3.0,70,0.00,,,0.00,meteohub,2013-08-08 14:07:00,
2013-08-08 07:12:00,58.1,47.1,30.00,SE,135,2.0,3.0,67,0.00,,,0.00,meteohub,2013-08-08 14:12:00,
2013-08-08 07:17:00,58.5,47.5,30.00,WSW,248,2.0,3.0,67,0.00,,,0.00,meteohub,2013-08-08 14:17:00,
2013-08-08 07:22:00,58.8,47.5,30.00,SW,225,2.0,3.0,66,0.00,,,0.00,meteohub,2013-08-08 14:22:00,
2013-08-08 07:27:00,59.0,46.8,30.00,South,180,2.0,3.0,64,0.00,,,0.00,meteohub,2013-08-08 14:27:00,
2013-08-08 07:32:00,59.5,47.8,29.99,East,90,2.0,3.0,65,0.00,,,0.00,meteohub,2013-08-08 14:32:00,
2013-08-08 07:37:00,60.3,48.4,30.00,SE,135,4.0,4.0,65,0.00,,,0.00,meteohub,2013-08-08 14:37:00,
2013-08-08 07:42:00,60.8,47.7,30.00,East,90,2.0,4.0,62,0.00,,,0.00,meteohub,2013-08-08 14:42:00,
2013-08-08 07:47:00,61.5,48.0,30.00,SE,135,2.0,4.0,61,0.00,,,0.00,meteohub,2013-08-08 14:47:00,
2013-08-08 07:52:00,62.1,48.0,30.00,East,90,2.0,4.0,60,0.00,,,0.00,meteohub,2013-08-08 14:52:00,
2013-08-08 07:57:00,62.8,48.2,30.00,East,90,2.0,4.0,59,0.00,,,0.00,meteohub,2013-08-08 14:57:00,
2013-08-08 08:02:00,63.7,48.6,30.00,East,90,4.0,4.0,58,0.00,,,0.00,meteohub,2013-08-08 15:02:00,
2013-08-08 08:07:00,64.9,48.9,30.00,NE,45,2.0,4.0,56,0.00,,,0.00,meteohub,2013-08-08 15:07:00,
2013-08-08 08:12:00,65.8,49.3,30.01,NE,45,2.0,4.0,55,0.00,,,0.00,meteohub,2013-08-08 15:12:00,
2013-08-08 08:17:00,66.7,49.1,30.00,NNE,23,4.0,4.0,53,0.00,,,0.00,meteohub,2013-08-08 15:17:00,
2013-08-08 08:22:00,67.1,48.4,30.00,NE,45,4.0,4.0,51,0.00,,,0.00,meteohub,2013-08-08 15:22:00,
2013-08-08 08:27:00,67.6,48.9,30.00,SE,135,4.0,4.0,51,0.00,,,0.00,meteohub,2013-08-08 15:27:00,
2013-08-08 08:32:00,68.2,48.4,30.00,NE,45,2.0,4.0,49,0.00,,,0.00,meteohub,2013-08-08 15:32:00,
2013-08-08 08:37:00,68.5,48.0,30.00,NE,45,2.0,4.0,48,0.00,,,0.00,meteohub,2013-08-08 15:37:00,
2013-08-08 08:42:00,68.9,47.8,30.00,East,90,4.0,5.0,47,0.00,,,0.00,meteohub,2013-08-08 15:42:00,
2013-08-08 08:47:00,69.4,48.4,30.00,NE,45,4.0,5.0,47,0.00,,,0.00,meteohub,2013-08-08 15:47:00,
2013-08-08 08:52:00,70.2,47.8,30.00,NE,45,4.0,5.0,45,0.00,,,0.00,meteohub,2013-08-08 15:52:00,
2013-08-08 08:57:00,71.2,48.2,29.99,SE,135,4.0,4.0,44,0.00,,,0.00,meteohub,2013-08-08 15:57:00,
2013-08-08 09:02:00,71.6,46.6,30.00,East,90,3.0,4.0,41,0.00,,,0.00,meteohub,2013-08-08 16:02:00,
2013-08-08 09:07:00,72.0,46.4,29.99,NE,45,4.0,5.0,40,0.00,,,0.00,meteohub,2013-08-08 16:07:00,
2013-08-08 09:13:00,72.7,46.9,30.00,NE,45,3.0,5.0,40,0.00,,,0.00,meteohub,2013-08-08 16:13:00,
2013-08-08 09:19:00,73.8,49.3,29.99,South,180,2.0,4.0,42,0.00,,,0.00,meteohub,2013-08-08 16:19:00,
2013-08-08 09:25:00,74.1,48.9,30.00,NE,45,2.0,5.0,41,0.00,,,0.00,meteohub,2013-08-08 16:25:00,
2013-08-08 09:31:00,74.8,49.6,30.00,NE,45,2.0,4.0,41,0.00,,,0.00,meteohub,2013-08-08 16:31:00,
2013-08-08 09:37:00,75.0,47.7,30.00,NE,45,4.0,4.0,38,0.00,,,0.00,meteohub,2013-08-08 16:37:00,
2013-08-08 09:42:00,75.6,46.8,30.00,NE,45,4.0,6.0,36,0.00,,,0.00,meteohub,2013-08-08 16:42:00,
2013-08-08 09:47:00,76.5,46.8,29.99,East,90,4.0,6.0,35,0.00,,,0.00,meteohub,2013-08-08 16:47:00,
2013-08-08 09:52:00,77.0,45.7,30.00,SE,135,6.0,6.0,33,0.00,,,0.00,meteohub,2013-08-08 16:52:00,
2013-08-08 09:57:00,77.0,45.0,29.99,SW,225,3.0,8.0,32,0.00,,,0.00,meteohub,2013-08-08 16:57:00,
2013-08-08 10:02:00,77.2,44.2,29.99,North,0,4.0,8.0,31,0.00,,,0.00,meteohub,2013-08-08 17:02:00,
2013-08-08 10:07:00,77.7,44.6,29.99,East,90,4.0,8.0,31,0.00,,,0.00,meteohub,2013-08-08 17:07:00,
2013-08-08 10:12:00,78.1,45.0,29.99,NE,45,6.0,7.0,31,0.00,,,0.00,meteohub,2013-08-08 17:12:00,
2013-08-08 10:17:00,78.6,44.6,29.99,SE,135,5.0,7.0,30,0.00,,,0.00,meteohub,2013-08-08 17:17:00,
2013-08-08 10:23:00,78.8,43.9,29.99,East,90,6.0,6.0,29,0.00,,,0.00,meteohub,2013-08-08 17:23:00,
2013-08-08 10:29:00,79.0,44.1,29.99,WNW,293,2.0,6.0,29,0.00,,,0.00,meteohub,2013-08-08 17:29:00,
2013-08-08 10:35:00,79.5,44.4,29.99,North,0,7.0,7.0,29,0.00,,,0.00,meteohub,2013-08-08 17:35:00,
2013-08-08 10:41:00,80.2,41.2,29.99,East,90,2.0,7.0,25,0.00,,,0.00,meteohub,2013-08-08 17:41:00,
2013-08-08 10:47:00,80.4,43.3,29.99,NE,45,4.0,7.0,27,0.00,,,0.00,meteohub,2013-08-08 17:47:00,
2013-08-08 10:52:00,80.8,41.7,29.99,NE,45,7.0,7.0,25,0.00,,,0.00,meteohub,2013-08-08 17:52:00,
2013-08-08 10:57:00,80.8,40.6,29.98,NE,45,4.0,8.0,24,0.00,,,0.00,meteohub,2013-08-08 17:57:00,
2013-08-08 11:02:00,81.1,41.9,29.98,ESE,113,6.0,8.0,25,0.00,,,0.00,meteohub,2013-08-08 18:02:00,
2013-08-08 11:07:00,81.9,40.5,29.98,North,0,4.0,8.0,23,0.00,,,0.00,meteohub,2013-08-08 18:07:00,
2013-08-08 11:12:00,82.4,43.0,29.99,NW,315,3.0,6.0,25,0.00,,,0.00,meteohub,2013-08-08 18:12:00,
2013-08-08 11:17:00,82.2,39.6,29.98,NW,315,2.0,6.0,22,0.00,,,0.00,meteohub,2013-08-08 18:17:00,
2013-08-08 11:22:00,82.6,44.2,29.98,SE,135,3.0,4.0,26,0.00,,,0.00,meteohub,2013-08-08 18:22:00,
2013-08-08 11:27:00,83.3,46.8,29.98,SW,225,4.0,5.0,28,0.00,,,0.00,meteohub,2013-08-08 18:27:00,
2013-08-08 11:32:00,84.0,46.4,29.98,North,0,4.0,5.0,27,0.00,,,0.00,meteohub,2013-08-08 18:32:00,
2013-08-08 11:37:00,84.7,45.0,29.97,SW,225,4.0,7.0,25,0.00,,,0.00,meteohub,2013-08-08 18:37:00,
2013-08-08 11:42:00,84.6,45.9,29.98,SE,135,2.0,7.0,26,0.00,,,0.00,meteohub,2013-08-08 18:42:00,
2013-08-08 11:48:00,84.2,44.6,29.98,NW,315,3.0,5.0,25,0.00,,,0.00,meteohub,2013-08-08 18:48:00,
2013-08-08 11:54:00,84.6,43.9,29.97,West,270,4.0,10.0,24,0.00,,,0.00,meteohub,2013-08-08 18:54:00,
2013-08-08 12:00:00,84.6,42.6,29.97,North,0,3.0,10.0,23,0.00,,,0.00,meteohub,2013-08-08 19:00:00,
2013-08-08 12:06:00,85.6,43.5,29.97,NW,315,3.0,7.0,23,0.00,,,0.00,meteohub,2013-08-08 19:06:00,
2013-08-08 12:12:00,85.5,43.5,29.97,NW,315,4.0,7.0,23,0.00,,,0.00,meteohub,2013-08-08 19:12:00,
2013-08-08 12:17:00,85.8,43.7,29.97,South,180,2.0,5.0,23,0.00,,,0.00,meteohub,2013-08-08 19:17:00,
2013-08-08 12:22:00,85.8,43.7,29.97,NNW,338,5.0,7.0,23,0.00,,,0.00,meteohub,2013-08-08 19:22:00,
2013-08-08 12:27:00,84.7,42.8,29.96,NW,315,6.0,8.0,23,0.00,,,0.00,meteohub,2013-08-08 19:27:00,
2013-08-08 12:32:00,84.2,42.4,29.96,NW,315,5.0,8.0,23,0.00,,,0.00,meteohub,2013-08-08 19:32:00,
2013-08-08 12:37:00,84.6,43.9,29.96,North,0,9.0,9.0,24,0.00,,,0.00,meteohub,2013-08-08 19:37:00,
2013-08-08 12:42:00,85.3,44.4,29.96,NW,315,6.0,9.0,24,0.00,,,0.00,meteohub,2013-08-08 19:42:00,
2013-08-08 12:47:00,85.1,43.2,29.96,North,0,4.0,9.0,23,0.00,,,0.00,meteohub,2013-08-08 19:47:00,
2013-08-08 12:52:00,85.6,42.4,29.96,NE,45,4.0,9.0,22,0.00,,,0.00,meteohub,2013-08-08 19:52:00,
2013-08-08 12:58:00,85.5,43.5,29.96,West,270,5.0,8.0,23,0.00,,,0.00,meteohub,2013-08-08 19:58:00,
2013-08-08 13:04:00,85.1,43.2,29.96,WNW,293,4.0,8.0,23,0.00,,,0.00,meteohub,2013-08-08 20:04:00,
2013-08-08 13:10:00,86.4,43.0,29.95,North,0,4.0,8.0,22,0.00,,,0.00,meteohub,2013-08-08 20:10:00,
2013-08-08 13:16:00,86.9,42.3,29.95,NE,45,5.0,10.0,21,0.00,,,0.00,meteohub,2013-08-08 20:16:00,
2013-08-08 13:22:00,87.3,42.6,29.95,NE,45,6.0,10.0,21,0.00,,,0.00,meteohub,2013-08-08 20:22:00,
2013-08-08 13:27:00,87.4,41.4,29.95,NE,45,4.0,10.0,20,0.00,,,0.00,meteohub,2013-08-08 20:27:00,
2013-08-08 13:32:00,86.9,41.0,29.96,NE,45,3.0,10.0,20,0.00,,,0.00,meteohub,2013-08-08 20:32:00,
2013-08-08 13:37:00,87.3,41.4,29.95,NW,315,4.0,8.0,20,0.00,,,0.00,meteohub,2013-08-08 20:37:00,
2013-08-08 13:42:00,87.3,41.4,29.95,NW,315,6.0,8.0,20,0.00,,,0.00,meteohub,2013-08-08 20:42:00,
2013-08-08 13:47:00,87.6,40.3,29.95,North,0,3.0,8.0,19,0.00,,,0.00,meteohub,2013-08-08 20:47:00,
2013-08-08 13:52:00,87.6,37.4,29.95,SE,135,4.0,8.0,17,0.00,,,0.00,meteohub,2013-08-08 20:52:00,
2013-08-08 13:57:00,87.3,38.7,29.95,NW,315,4.0,8.0,18,0.00,,,0.00,meteohub,2013-08-08 20:57:00,
2013-08-08 14:02:00,86.7,40.8,29.95,West,270,2.0,8.0,20,0.00,,,0.00,meteohub,2013-08-08 21:02:00,
2013-08-08 14:07:00,87.3,41.4,29.95,West,270,2.0,6.0,20,0.00,,,0.00,meteohub,2013-08-08 21:07:00,
2013-08-08 14:12:00,86.9,41.0,29.95,NW,315,5.0,6.0,20,0.00,,,0.00,meteohub,2013-08-08 21:12:00,
2013-08-08 14:17:00,86.5,40.6,29.94,NE,45,3.0,7.0,20,0.00,,,0.00,meteohub,2013-08-08 21:17:00,
2013-08-08 14:22:00,86.4,40.6,29.94,North,0,11.0,59.0,20,0.00,,,0.00,meteohub,2013-08-08 21:22:00,
2013-08-08 14:27:00,86.0,40.3,29.95,North,0,6.0,59.0,20,0.00,,,0.00,meteohub,2013-08-08 21:27:00,
2013-08-08 14:32:00,86.4,40.6,29.95,NE,45,6.0,11.0,20,0.00,,,0.00,meteohub,2013-08-08 21:32:00,
2013-08-08 14:37:00,86.4,40.6,29.95,NE,45,6.0,11.0,20,0.00,,,0.00,meteohub,2013-08-08 21:37:00,
2013-08-08 14:42:00,86.2,40.5,29.94,NE,45,4.0,11.0,20,0.00,,,0.00,meteohub,2013-08-08 21:42:00,
2013-08-08 14:47:00,86.2,40.5,29.95,North,0,2.0,11.0,20,0.00,,,0.00,meteohub,2013-08-08 21:47:00,
2013-08-08 14:52:00,86.5,40.6,29.94,North,0,4.0,9.0,20,0.00,,,0.00,meteohub,2013-08-08 21:52:00,
2013-08-08 14:57:00,87.4,41.4,29.94,South,180,2.0,9.0,20,0.00,,,0.00,meteohub,2013-08-08 21:57:00,
2013-08-08 15:02:00,87.8,39.0,29.94,NE,45,5.0,8.0,18,0.00,,,0.00,meteohub,2013-08-08 22:02:00,
2013-08-08 15:08:00,88.2,40.6,29.94,North,0,6.0,6.0,19,0.00,,,0.00,meteohub,2013-08-08 22:08:00,
2013-08-08 15:14:00,87.8,36.0,29.94,West,270,7.0,7.0,16,0.00,,,0.00,meteohub,2013-08-08 22:14:00,
2013-08-08 15:20:00,87.3,38.7,29.93,East,90,5.0,13.0,18,0.00,,,0.00,meteohub,2013-08-08 22:20:00,
2013-08-08 15:26:00,87.4,40.1,29.94,NE,45,4.0,7.0,19,0.00,,,0.00,meteohub,2013-08-08 22:26:00,
2013-08-08 15:32:00,88.2,36.3,29.93,NE,45,8.0,8.0,16,0.00,,,0.00,meteohub,2013-08-08 22:32:00,
2013-08-08 15:37:00,88.3,33.1,29.93,East,90,4.0,8.0,14,0.00,,,0.00,meteohub,2013-08-08 22:37:00,
2013-08-08 15:42:00,88.2,36.3,29.93,North,0,3.0,8.0,16,0.00,,,0.00,meteohub,2013-08-08 22:42:00,
2013-08-08 15:49:00,87.6,32.5,29.93,NW,315,3.0,8.0,14,0.00,,,0.00,meteohub,2013-08-08 22:49:00,
2013-08-08 15:55:00,87.1,35.4,29.92,SE,135,2.0,4.0,16,0.00,,,0.00,meteohub,2013-08-08 22:55:00,
2013-08-08 16:01:00,87.3,41.4,29.92,WNW,293,3.0,4.0,20,0.00,,,0.00,meteohub,2013-08-08 23:01:00,
2013-08-08 16:07:00,87.8,37.6,29.92,NW,315,3.0,9.0,17,0.00,,,0.00,meteohub,2013-08-08 23:07:00,
2013-08-08 16:12:00,88.0,32.9,29.92,NW,315,5.0,9.0,14,0.00,,,0.00,meteohub,2013-08-08 23:12:00,
2013-08-08 16:17:00,87.8,30.9,29.92,NNE,23,2.0,9.0,13,0.00,,,0.00,meteohub,2013-08-08 23:17:00,
2013-08-08 16:22:00,88.2,34.7,29.92,West,270,1.0,6.0,15,0.00,,,0.00,meteohub,2013-08-08 23:22:00,
2013-08-08 16:27:00,88.2,36.3,29.92,ESE,113,3.0,6.0,16,0.00,,,0.00,meteohub,2013-08-08 23:27:00,
2013-08-08 16:32:00,88.3,31.3,29.92,NE,45,6.0,6.0,13,0.00,,,0.00,meteohub,2013-08-08 23:32:00,
2013-08-08 16:37:00,88.0,27.0,29.92,NW,315,5.0,6.0,11,0.00,,,0.00,meteohub,2013-08-08 23:37:00,
2013-08-08 16:42:00,87.4,28.6,29.92,West,270,5.0,7.0,12,0.00,,,0.00,meteohub,2013-08-08 23:42:00,
2013-08-08 16:49:00,86.5,33.4,29.92,East,90,2.0,7.0,15,0.00,,,0.00,meteohub,2013-08-08 23:49:00,
2013-08-08 16:55:00,86.2,29.7,29.92,North,0,2.0,6.0,13,0.00,,,0.00,meteohub,2013-08-08 23:55:00,
2013-08-08 17:02:00,86.0,29.5,29.92,NW,315,3.0,6.0,13,0.00,,,0.00,meteohub,2013-08-09 00:02:00,
2013-08-08 17:07:00,85.8,31.1,29.92,North,0,3.0,6.0,14,0.00,,,0.00,meteohub,2013-08-09 00:07:00,
2013-08-08 17:12:00,85.6,29.1,29.92,NE,45,4.0,4.0,13,0.00,,,0.00,meteohub,2013-08-09 00:12:00,
2013-08-08 17:18:00,85.3,30.7,29.92,NW,315,2.0,5.0,14,0.00,,,0.00,meteohub,2013-08-09 00:18:00,
2013-08-08 17:25:00,85.1,33.8,29.92,North,0,3.0,6.0,16,0.00,,,0.00,meteohub,2013-08-09 00:25:00,
2013-08-08 17:31:00,84.9,30.4,29.91,North,0,3.0,4.0,14,0.00,,,0.00,meteohub,2013-08-09 00:31:00,
2013-08-08 17:37:00,84.6,31.8,29.92,NW,315,2.0,6.0,15,0.00,,,0.00,meteohub,2013-08-09 00:37:00,
2013-08-08 17:42:00,84.4,34.9,29.91,NE,45,2.0,6.0,17,0.00,,,0.00,meteohub,2013-08-09 00:42:00,
2013-08-08 17:49:00,84.2,36.1,29.92,East,90,2.0,4.0,18,0.00,,,0.00,meteohub,2013-08-09 00:49:00,
2013-08-08 17:55:00,84.0,36.0,29.92,NE,45,5.0,5.0,18,0.00,,,0.00,meteohub,2013-08-09 00:55:00,
2013-08-08 18:01:00,83.7,40.8,29.92,North,0,6.0,9.0,22,0.00,,,0.00,meteohub,2013-08-09 01:01:00,
2013-08-08 18:07:00,83.3,40.5,29.92,East,90,3.0,9.0,22,0.00,,,0.00,meteohub,2013-08-09 01:07:00,
2013-08-08 18:12:00,83.1,40.3,29.92,SW,225,5.0,9.0,22,0.00,,,0.00,meteohub,2013-08-09 01:12:00,
2013-08-08 18:17:00,82.6,39.9,29.92,SW,225,6.0,7.0,22,0.00,,,0.00,meteohub,2013-08-09 01:17:00,
2013-08-08 18:22:00,81.9,35.6,29.92,SW,225,2.0,8.0,19,0.00,,,0.00,meteohub,2013-08-09 01:22:00,
2013-08-08 18:28:00,81.5,35.2,29.92,South,180,5.0,8.0,19,0.00,,,0.00,meteohub,2013-08-09 01:28:00,
2013-08-08 18:34:00,81.3,35.1,29.91,West,270,3.0,10.0,19,0.00,,,0.00,meteohub,2013-08-09 01:34:00,
2013-08-08 18:40:00,81.1,35.1,29.91,SW,225,2.0,5.0,19,0.00,,,0.00,meteohub,2013-08-09 01:40:00,
2013-08-08 18:47:00,81.0,36.1,29.90,SW,225,2.0,4.0,20,0.00,,,0.00,meteohub,2013-08-09 01:47:00,
2013-08-08 18:52:00,81.0,37.4,29.91,East,90,3.0,4.0,21,0.00,,,0.00,meteohub,2013-08-09 01:52:00,
2013-08-08 18:57:00,80.8,37.2,29.90,SE,135,1.0,4.0,21,0.00,,,0.00,meteohub,2013-08-09 01:57:00,
2013-08-08 19:02:00,80.8,38.5,29.90,SW,225,2.0,4.0,22,0.00,,,0.00,meteohub,2013-08-09 02:02:00,
2013-08-08 19:07:00,80.8,38.5,29.91,SE,135,2.0,3.0,22,0.00,,,0.00,meteohub,2013-08-09 02:07:00,
2013-08-08 19:12:00,80.8,39.6,29.91,South,180,1.0,2.0,23,0.00,,,0.00,meteohub,2013-08-09 02:12:00,
2013-08-08 19:17:00,80.6,41.5,29.91,SW,225,2.0,2.0,25,0.00,,,0.00,meteohub,2013-08-09 02:17:00,
2013-08-08 19:24:00,79.5,43.5,29.91,SW,225,2.0,2.0,28,0.00,,,0.00,meteohub,2013-08-09 02:24:00,
2013-08-08 19:30:00,78.8,43.9,29.91,SE,135,2.0,4.0,29,0.00,,,0.00,meteohub,2013-08-09 02:30:00,
2013-08-08 19:36:00,78.4,44.4,29.91,NW,315,5.0,5.0,30,0.00,,,0.00,meteohub,2013-08-09 02:36:00,
2013-08-08 19:42:00,78.3,45.1,29.91,SW,225,3.0,5.0,31,0.00,,,0.00,meteohub,2013-08-09 02:42:00,
2013-08-08 19:47:00,77.9,46.4,29.91,NW,315,3.0,5.0,33,0.00,,,0.00,meteohub,2013-08-09 02:47:00,
2013-08-08 19:52:00,77.7,48.6,29.91,North,0,2.0,5.0,36,0.00,,,0.00,meteohub,2013-08-09 02:52:00,
2013-08-08 19:57:00,77.5,51.3,29.91,West,270,4.0,6.0,40,0.00,,,0.00,meteohub,2013-08-09 02:57:00,
2013-08-08 20:02:00,77.5,52.0,29.91,North,0,3.0,6.0,41,0.00,,,0.00,meteohub,2013-08-09 03:02:00,
2013-08-08 20:07:00,77.4,52.5,29.91,North,0,4.0,6.0,42,0.00,,,0.00,meteohub,2013-08-09 03:07:00,
2013-08-08 20:13:00,77.0,52.9,29.92,NW,315,2.0,5.0,43,0.00,,,0.00,meteohub,2013-08-09 03:13:00,
2013-08-08 20:19:00,76.5,52.9,29.92,NW,315,4.0,4.0,44,0.00,,,0.00,meteohub,2013-08-09 03:19:00,
2013-08-08 20:25:00,75.9,52.5,29.92,NE,45,3.0,6.0,44,0.00,,,0.00,meteohub,2013-08-09 03:25:00,
2013-08-08 20:31:00,75.0,52.2,29.93,South,180,3.0,6.0,45,0.00,,,0.00,meteohub,2013-08-09 03:31:00,
2013-08-08 20:37:00,73.0,56.5,29.93,West,270,3.0,6.0,56,0.00,,,0.00,meteohub,2013-08-09 03:37:00,
2013-08-08 20:42:00,70.2,56.1,29.93,South,180,3.0,6.0,61,0.00,,,0.00,meteohub,2013-08-09 03:42:00,
2013-08-08 20:47:00,68.5,55.9,29.94,South,180,2.0,4.0,64,0.00,,,0.00,meteohub,2013-08-09 03:47:00,
2013-08-08 20:52:00,66.7,56.3,29.93,West,270,2.0,4.0,69,0.00,,,0.00,meteohub,2013-08-09 03:52:00,
2013-08-08 20:57:00,65.5,56.7,29.94,SW,225,2.0,4.0,73,0.00,,,0.00,meteohub,2013-08-09 03:57:00,
2013-08-08 21:02:00,64.4,56.3,29.94,SW,225,2.0,4.0,75,0.00,,,0.00,meteohub,2013-08-09 04:02:00,
2013-08-08 21:04:00,64.0,56.7,29.94,West,270,2.0,4.0,77,0.00,,,0.00,meteohub,2013-08-09 04:04:00,
2013-08-08 21:09:00,63.7,56.7,29.94,West,270,2.0,4.0,78,0.00,,,0.00,meteohub,2013-08-09 04:09:00,
2013-08-08 21:13:00,63.3,56.7,29.94,West,270,2.0,2.0,79,0.00,,,0.00,meteohub,2013-08-09 04:13:00,
2013-08-08 21:19:00,63.0,56.3,29.95,SW,225,2.0,2.0,79,0.00,,,0.00,meteohub,2013-08-09 04:19:00,
2013-08-08 21:25:00,63.0,56.7,29.96,South,180,1.0,2.0,80,0.00,,,0.00,meteohub,2013-08-09 04:25:00,
2013-08-08 21:31:00,63.5,56.8,29.95,West,270,0.0,3.0,79,0.00,,,0.00,meteohub,2013-08-09 04:31:00,
2013-08-08 21:37:00,64.2,55.4,29.95,NW,315,2.0,3.0,73,0.00,,,0.00,meteohub,2013-08-09 04:37:00,
2013-08-08 21:42:00,65.1,54.7,29.94,NW,315,1.0,2.0,69,0.00,,,0.00,meteohub,2013-08-09 04:42:00,
2013-08-08 21:47:00,66.0,54.3,29.94,NW,315,1.0,2.0,66,0.00,,,0.00,meteohub,2013-08-09 04:47:00,
2013-08-08 21:53:00,66.7,54.1,29.94,South,180,0.0,2.0,64,0.00,,,0.00,meteohub,2013-08-09 04:53:00,
2013-08-08 21:59:00,67.1,54.1,29.95,South,180,1.0,2.0,63,0.00,,,0.00,meteohub,2013-08-09 04:59:00,
2013-08-08 22:05:00,68.0,54.0,29.95,South,180,1.0,2.0,61,0.00,,,0.00,meteohub,2013-08-09 05:05:00,
2013-08-08 22:11:00,68.4,54.0,29.94,SW,225,1.0,2.0,60,0.00,,,0.00,meteohub,2013-08-09 05:11:00,
2013-08-08 22:17:00,68.4,53.4,29.95,SW,225,1.0,2.0,59,0.00,,,0.00,meteohub,2013-08-09 05:17:00,
2013-08-08 22:22:00,68.5,53.2,29.96,SW,225,0.0,2.0,58,0.00,,,0.00,meteohub,2013-08-09 05:22:00,
2013-08-08 22:27:00,68.5,53.2,29.95,SW,225,0.0,2.0,58,0.00,,,0.00,meteohub,2013-08-09 05:27:00,
2013-08-08 22:32:00,68.5,53.2,29.95,SW,225,1.0,1.0,58,0.00,,,0.00,meteohub,2013-08-09 05:32:00,
2013-08-08 22:37:00,68.5,53.2,29.95,SW,225,0.0,1.0,58,0.00,,,0.00,meteohub,2013-08-09 05:37:00,
2013-08-08 22:42:00,68.5,52.7,29.95,SW,225,0.0,2.0,57,0.00,,,0.00,meteohub,2013-08-09 05:42:00,
2013-08-08 22:47:00,68.5,53.2,29.95,SW,225,0.0,2.0,58,0.00,,,0.00,meteohub,2013-08-09 05:47:00,
2013-08-08 22:52:00,68.5,52.7,29.96,SW,225,0.0,1.0,57,0.00,,,0.00,meteohub,2013-08-09 05:52:00,
2013-08-08 22:57:00,68.5,53.2,29.95,SW,225,1.0,2.0,58,0.00,,,0.00,meteohub,2013-08-09 05:57:00,
2013-08-08 23:02:00,68.5,52.7,29.95,SW,225,2.0,2.0,57,0.00,,,0.00,meteohub,2013-08-09 06:02:00,
2013-08-08 23:07:00,68.5,52.2,29.95,SW,225,0.0,2.0,56,0.00,,,0.00,meteohub,2013-08-09 06:07:00,
2013-08-08 23:12:00,68.5,52.2,29.95,SW,225,0.0,2.0,56,0.00,,,0.00,meteohub,2013-08-09 06:12:00,
2013-08-08 23:17:00,68.4,52.0,29.96,NW,315,1.0,2.0,56,0.00,,,0.00,meteohub,2013-08-09 06:17:00,
2013-08-08 23:22:00,68.5,51.8,29.95,NW,315,0.0,1.0,55,0.00,,,0.00,meteohub,2013-08-09 06:22:00,
2013-08-08 23:27:00,68.5,51.8,29.95,NW,315,0.0,1.0,55,0.00,,,0.00,meteohub,2013-08-09 06:27:00,
2013-08-08 23:32:00,68.4,51.6,29.96,North,0,1.0,1.0,55,0.00,,,0.00,meteohub,2013-08-09 06:32:00,
2013-08-08 23:37:00,68.4,51.6,29.95,North,0,0.0,2.0,55,0.00,,,0.00,meteohub,2013-08-09 06:37:00,
2013-08-08 23:42:00,68.2,51.4,29.95,North,0,0.0,2.0,55,0.00,,,0.00,meteohub,2013-08-09 06:42:00,
2013-08-08 23:47:00,68.2,51.4,29.95,North,0,2.0,2.0,55,0.00,,,0.00,meteohub,2013-08-09 06:47:00,
2013-08-08 23:52:00,68.2,51.8,29.95,North,0,0.0,2.0,56,0.00,,,0.00,meteohub,2013-08-09 06:52:00,
2013-08-08 23:57:00,68.2,51.8,29.95,North,0,0.0,2.0,56,0.00,,,0.00,meteohub,2013-08-09 06:57:00,